This is the latest recevied weather packets stored in our database for station/object KB9HUO. If no packets are shown the sender has not sent any weather packets the latest 10 day(s).
| Time | Temp. | Humidity | Pressure | Rain* | Wind** | Luminosity | Snow |
|---|---|---|---|---|---|---|---|
| 1778177099 | 16.11° C | 34% | 1016.7 hPa | 0 mm | - | 814 W/m² | - |
| 1778176795 | 16.11° C | 36% | 1016.5 hPa | 0 mm | - | 820 W/m² | - |
| 1778176492 | 16.11° C | 36% | 1016.5 hPa | 0 mm | - | 822 W/m² | - |
| 1778176189 | 16.67° C | 37% | 1016.5 hPa | 0 mm | - | 827 W/m² | - |
| 1778175886 | 16.67° C | 39% | 1016.7 hPa | 0 mm | - | 830 W/m² | - |
| 1778175584 | 16.11° C | 41% | 1016.8 hPa | 0 mm | - | 832 W/m² | - |
| 1778175281 | 16.11° C | 36% | 1016.9 hPa | 0 mm | - | 834 W/m² | - |
| 1778174978 | 16.67° C | 37% | 1017.2 hPa | 0 mm | - | 834 W/m² | - |
| 1778174674 | 16.11° C | 33% | 1017.1 hPa | 0 mm | - | 833 W/m² | - |
| 1778174370 | 16.67° C | 35% | 1017.1 hPa | 0 mm | - | 831 W/m² | - |
| 1778174067 | 16.11° C | 37% | 1016.9 hPa | 0 mm | - | 829 W/m² | - |
| 1778173764 | 16.11° C | 41% | 1017.4 hPa | 0 mm | - | 831 W/m² | - |
| 1778173460 | 15.56° C | 40% | 1017.4 hPa | 0 mm | - | 831 W/m² | - |
| 1778173157 | 15° C | 37% | 1017.4 hPa | 0 mm | - | 823 W/m² | - |
| 1778172853 | 15° C | 41% | 1017.4 hPa | 0 mm | - | 824 W/m² | - |
| 1778172548 | 15° C | 38% | 1017.6 hPa | 0 mm | - | 824 W/m² | - |
| 1778172246 | 15.56° C | 38% | 1017.4 hPa | 0 mm | - | 823 W/m² | - |
| 1778171943 | 16.11° C | 40% | 1017.6 hPa | 0 mm | - | 812 W/m² | - |
| 1778171640 | 15.56° C | 38% | 1017.4 hPa | 0 mm | - | 810 W/m² | - |
| 1778171337 | 15° C | 44% | 1017.5 hPa | 0 mm | - | 806 W/m² | - |
| 1778171032 | 14.44° C | 41% | 1017.6 hPa | 0 mm | - | 803 W/m² | - |
| 1778170730 | 15° C | 36% | 1017.5 hPa | 0 mm | - | 797 W/m² | - |
| 1778170426 | 15° C | 38% | 1017.7 hPa | 0 mm | - | 789 W/m² | - |
| 1778170123 | 15.56° C | 40% | 1017.8 hPa | 0 mm | - | 784 W/m² | - |
| 1778169818 | 15.56° C | 40% | 1017.8 hPa | 0 mm | - | 778 W/m² | - |
* Rain latest hour (hover to see other rain measurements)
** Current wind speed in m/s (hover to see current wind gust speed)